FLOCK 4Q 19

导读 | 星芒AI

FLOCK 4Q 19 是由 Planet Labs 运营的地球观测卫星之一,属于其“Flock”系列。该卫星搭载高分辨率多光谱相机,主要用于获取地球表面的影像数据,广泛应用于环境监测、农业管理、灾害评估等领域。FLOCK 4Q 19 采用小型卫星设计,具有较高的成像频率和灵活性,能够与其他卫星协同工作,提升数据获取的时效性和覆盖范围。该卫星通常运行在低地球轨道,为用户提供快速、精准的遥感服务。

基本信息
目录编号:
58278
目录名称:
FLOCK 4Q 19
国际标识:
2023-174Y
轨道中心:
EARTH
卫星名称:
FLOCK 4Q 19
卫星全名:
--
卫星状态:
已陨落 最后检测时间 2025-05-31
发射日期:
2023-11-11 UTC
国别 :
美国 (US)
星等 :
--
轨道信息
数据来源 国际轨道数据
星历时间: 2025-05-26T20:22:14+0800
轨道信息已过期195天
半长轴: 6563.177km
偏心率: 0.0017758
轨道倾角: 97.379°
近地点辐角 274.446°
升交点赤经 230.745°
平近点角 85.480°
近地点: 173.387km
远地点: 196.697km
周期: 88.192分钟
每日圈数: 16.32795
详细信息
使用方式:
暂无